Year,Month,Day,Hour,Minute,Value (Times are PST for windgust in km/hr)
2009,05,04,00,00,0.00
2009,05,04,00,01,0.00
2009,05,04,00,02,0.00
2009,05,04,00,03,0.00
2009,05,04,00,04,0.00
2009,05,04,00,05,0.00
2009,05,04,00,06,0.00
2009,05,04,00,07,0.00
2009,05,04,00,08,0.00
2009,05,04,00,09,0.00
2009,05,04,00,10,0.00
2009,05,04,00,11,0.00
2009,05,04,00,12,0.00
2009,05,04,00,13,0.00
2009,05,04,00,14,0.00
2009,05,04,00,15,0.00
2009,05,04,00,16,0.00
2009,05,04,00,17,0.00
2009,05,04,00,18,0.00
2009,05,04,00,19,0.00
2009,05,04,00,20,0.00
2009,05,04,00,21,0.00
2009,05,04,00,22,0.00
2009,05,04,00,23,0.00
2009,05,04,00,24,0.00
2009,05,04,00,25,0.00
2009,05,04,00,26,0.00
2009,05,04,00,27,0.00
2009,05,04,00,28,0.00
2009,05,04,00,29,0.00
2009,05,04,00,30,0.00
2009,05,04,00,31,0.00
2009,05,04,00,32,0.00
2009,05,04,00,33,0.00
2009,05,04,00,34,1.60
2009,05,04,00,35,0.00
2009,05,04,00,36,0.00
2009,05,04,00,37,0.00
2009,05,04,00,38,0.00
2009,05,04,00,39,1.60
2009,05,04,00,40,1.60
2009,05,04,00,41,0.00
2009,05,04,00,42,0.00
2009,05,04,00,43,0.00
2009,05,04,00,44,1.60
2009,05,04,00,45,1.60
2009,05,04,00,46,0.00
2009,05,04,00,47,1.60
2009,05,04,00,48,0.00
2009,05,04,00,49,1.60
2009,05,04,00,50,1.60
2009,05,04,00,51,1.60
2009,05,04,00,52,0.00
2009,05,04,00,53,1.60
2009,05,04,00,54,0.00
2009,05,04,00,55,0.00
2009,05,04,00,56,0.00
2009,05,04,00,57,0.00
2009,05,04,00,58,0.00
2009,05,04,00,59,0.00
2009,05,04,01,00,0.00
2009,05,04,01,01,0.00
2009,05,04,01,02,0.00
2009,05,04,01,03,0.00
2009,05,04,01,04,0.00
2009,05,04,01,05,0.00
2009,05,04,01,06,0.00
2009,05,04,01,07,0.00
2009,05,04,01,08,1.60
2009,05,04,01,09,3.20
2009,05,04,01,10,1.60
2009,05,04,01,11,0.00
2009,05,04,01,12,0.00
2009,05,04,01,13,0.00
2009,05,04,01,14,0.00
2009,05,04,01,15,0.00
2009,05,04,01,16,0.00
2009,05,04,01,17,0.00
2009,05,04,01,18,0.00
2009,05,04,01,19,0.00
2009,05,04,01,20,0.00
2009,05,04,01,21,0.00
2009,05,04,01,22,1.60
2009,05,04,01,23,0.00
2009,05,04,01,24,1.60
2009,05,04,01,25,0.00
2009,05,04,01,26,0.00
2009,05,04,01,27,0.00
2009,05,04,01,28,1.60
2009,05,04,01,29,0.00
2009,05,04,01,30,0.00
2009,05,04,01,31,0.00
2009,05,04,01,32,0.00
2009,05,04,01,33,0.00
2009,05,04,01,34,0.00
2009,05,04,01,35,1.60
2009,05,04,01,36,0.00
2009,05,04,01,37,0.00
2009,05,04,01,38,0.00
2009,05,04,01,39,1.60
2009,05,04,01,40,0.00
2009,05,04,01,41,0.00
2009,05,04,01,42,0.00
2009,05,04,01,43,0.00
2009,05,04,01,44,0.00
2009,05,04,01,45,0.00
2009,05,04,01,46,0.00
2009,05,04,01,47,0.00
2009,05,04,01,48,0.00
2009,05,04,01,49,0.00
2009,05,04,01,50,0.00
2009,05,04,01,51,0.00
2009,05,04,01,52,0.00
2009,05,04,01,53,1.60
2009,05,04,01,54,0.00
2009,05,04,01,55,0.00
2009,05,04,01,56,0.00
2009,05,04,01,57,0.00
2009,05,04,01,58,0.00
2009,05,04,01,59,0.00
2009,05,04,02,00,0.00
2009,05,04,02,01,0.00
2009,05,04,02,02,0.00
2009,05,04,02,03,0.00
2009,05,04,02,04,0.00
2009,05,04,02,05,0.00
2009,05,04,02,06,0.00
2009,05,04,02,07,0.00
2009,05,04,02,08,0.00
2009,05,04,02,09,0.00
2009,05,04,02,10,0.00
2009,05,04,02,11,0.00
2009,05,04,02,12,0.00
2009,05,04,02,13,0.00
2009,05,04,02,14,0.00
2009,05,04,02,15,0.00
2009,05,04,02,16,0.00
2009,05,04,02,17,0.00
2009,05,04,02,18,0.00
2009,05,04,02,19,0.00
2009,05,04,02,20,0.00
2009,05,04,02,21,0.00
2009,05,04,02,22,0.00
2009,05,04,02,23,0.00
2009,05,04,02,24,0.00
2009,05,04,02,25,0.00
2009,05,04,02,26,0.00
2009,05,04,02,27,0.00
2009,05,04,02,28,0.00
2009,05,04,02,29,0.00
2009,05,04,02,30,0.00
2009,05,04,02,31,0.00
2009,05,04,02,32,0.00
2009,05,04,02,33,0.00
2009,05,04,02,34,0.00
2009,05,04,02,35,0.00
2009,05,04,02,36,0.00
2009,05,04,02,37,0.00
2009,05,04,02,38,0.00
2009,05,04,02,39,0.00
2009,05,04,02,40,0.00
2009,05,04,02,41,0.00
2009,05,04,02,42,0.00
2009,05,04,02,43,0.00
2009,05,04,02,44,0.00
2009,05,04,02,45,0.00
2009,05,04,02,46,0.00
2009,05,04,02,47,0.00
2009,05,04,02,48,0.00
2009,05,04,02,49,0.00
2009,05,04,02,50,0.00
2009,05,04,02,51,0.00
2009,05,04,02,52,0.00
2009,05,04,02,53,0.00
2009,05,04,02,54,0.00
2009,05,04,02,55,0.00
2009,05,04,02,56,0.00
2009,05,04,02,57,0.00
2009,05,04,02,58,0.00
2009,05,04,02,59,0.00
2009,05,04,03,00,0.00
2009,05,04,03,01,0.00
2009,05,04,03,02,0.00
2009,05,04,03,03,0.00
2009,05,04,03,04,0.00
2009,05,04,03,05,0.00
2009,05,04,03,06,1.60
2009,05,04,03,07,1.60
2009,05,04,03,08,1.60
2009,05,04,03,09,0.00
2009,05,04,03,10,0.00
2009,05,04,03,11,0.00
2009,05,04,03,12,0.00
2009,05,04,03,13,0.00
2009,05,04,03,14,0.00
2009,05,04,03,15,0.00
2009,05,04,03,16,0.00
2009,05,04,03,17,0.00
2009,05,04,03,18,0.00
2009,05,04,03,19,0.00
2009,05,04,03,20,0.00
2009,05,04,03,21,0.00
2009,05,04,03,22,0.00
2009,05,04,03,23,0.00
2009,05,04,03,24,0.00
2009,05,04,03,25,0.00
2009,05,04,03,26,0.00
2009,05,04,03,27,0.00
2009,05,04,03,28,0.00
2009,05,04,03,29,0.00
2009,05,04,03,30,0.00
2009,05,04,03,31,0.00
2009,05,04,03,32,0.00
2009,05,04,03,33,0.00
2009,05,04,03,34,0.00
2009,05,04,03,35,0.00
2009,05,04,03,36,0.00
2009,05,04,03,37,0.00
2009,05,04,03,38,0.00
2009,05,04,03,39,0.00
2009,05,04,03,40,0.00
2009,05,04,03,41,0.00
2009,05,04,03,42,0.00
2009,05,04,03,43,0.00
2009,05,04,03,44,0.00
2009,05,04,03,45,0.00
2009,05,04,04,03,1.60
2009,05,04,04,04,1.60
2009,05,04,04,05,1.60
2009,05,04,04,06,0.00
2009,05,04,04,07,0.00
2009,05,04,04,08,0.00
2009,05,04,04,09,1.60
2009,05,04,04,10,1.60
2009,05,04,04,11,0.00
2009,05,04,04,12,0.00
2009,05,04,04,13,0.00
2009,05,04,04,14,0.00
2009,05,04,04,15,0.00
2009,05,04,04,16,0.00
2009,05,04,04,17,0.00
2009,05,04,04,18,0.00
2009,05,04,04,19,0.00
2009,05,04,04,20,0.00
2009,05,04,04,21,0.00
2009,05,04,04,22,0.00
2009,05,04,04,23,0.00
2009,05,04,04,24,0.00
2009,05,04,04,25,0.00
2009,05,04,04,26,0.00
2009,05,04,04,27,0.00
2009,05,04,04,28,0.00
2009,05,04,04,29,1.60
2009,05,04,04,30,1.60
2009,05,04,04,31,1.60
2009,05,04,04,32,1.60
2009,05,04,04,33,1.60
2009,05,04,04,34,1.60
2009,05,04,04,35,1.60
2009,05,04,04,36,1.60
2009,05,04,04,37,1.60
2009,05,04,04,38,1.60
2009,05,04,04,39,1.60
2009,05,04,04,40,3.20
2009,05,04,04,41,1.60
2009,05,04,04,42,1.60
2009,05,04,04,43,0.00
2009,05,04,04,44,0.00
2009,05,04,04,45,0.00
2009,05,04,04,46,0.00
2009,05,04,04,47,0.00
2009,05,04,04,48,0.00
2009,05,04,04,49,0.00
2009,05,04,04,50,0.00
2009,05,04,04,51,0.00
2009,05,04,04,52,0.00
2009,05,04,04,53,0.00
2009,05,04,04,54,0.00
2009,05,04,04,55,0.00
2009,05,04,04,56,0.00
2009,05,04,04,57,0.00
2009,05,04,04,58,0.00
2009,05,04,04,59,0.00
2009,05,04,05,00,0.00
2009,05,04,05,01,0.00
2009,05,04,05,02,0.00
2009,05,04,05,03,0.00
2009,05,04,05,04,0.00
2009,05,04,05,05,0.00
2009,05,04,05,06,1.60
2009,05,04,05,07,0.00
2009,05,04,05,08,0.00
2009,05,04,05,09,0.00
2009,05,04,05,10,1.60
2009,05,04,05,11,1.60
2009,05,04,05,12,1.60
2009,05,04,05,13,1.60
2009,05,04,05,14,0.00
2009,05,04,05,15,0.00
2009,05,04,05,16,0.00
2009,05,04,05,17,0.00
2009,05,04,05,18,0.00
2009,05,04,05,19,0.00
2009,05,04,05,20,1.60
2009,05,04,05,21,1.60
2009,05,04,05,22,0.00
2009,05,04,05,23,0.00
2009,05,04,05,24,0.00
2009,05,04,05,25,0.00
2009,05,04,05,26,0.00
2009,05,04,05,27,0.00
2009,05,04,05,28,0.00
2009,05,04,05,29,0.00
2009,05,04,05,30,0.00
2009,05,04,05,31,0.00
2009,05,04,05,32,0.00
2009,05,04,05,33,0.00
2009,05,04,05,34,0.00
2009,05,04,05,35,0.00
2009,05,04,05,36,0.00
2009,05,04,05,37,0.00
2009,05,04,05,38,0.00
2009,05,04,05,39,0.00
2009,05,04,05,40,0.00
2009,05,04,05,41,3.20
2009,05,04,05,42,0.00
2009,05,04,05,43,1.60
2009,05,04,05,44,1.60
2009,05,04,05,45,0.00
2009,05,04,05,46,0.00
2009,05,04,05,47,0.00
2009,05,04,05,48,1.60
2009,05,04,05,49,0.00
2009,05,04,05,50,0.00
2009,05,04,05,51,1.60
2009,05,04,05,52,0.00
2009,05,04,05,53,0.00
2009,05,04,05,54,0.00
2009,05,04,05,55,0.00
2009,05,04,05,56,0.00
2009,05,04,05,57,0.00
2009,05,04,05,58,0.00
2009,05,04,05,59,0.00
2009,05,04,06,00,0.00
2009,05,04,06,01,0.00
2009,05,04,06,02,0.00
2009,05,04,06,03,0.00
2009,05,04,06,04,0.00
2009,05,04,06,05,0.00
2009,05,04,06,06,0.00
2009,05,04,06,07,0.00
2009,05,04,06,08,0.00
2009,05,04,06,09,0.00
2009,05,04,06,10,0.00
2009,05,04,06,11,0.00
2009,05,04,06,12,0.00
2009,05,04,06,13,0.00
2009,05,04,06,14,0.00
2009,05,04,06,15,0.00
2009,05,04,06,16,0.00
2009,05,04,06,17,0.00
2009,05,04,06,18,0.00
2009,05,04,06,19,0.00
2009,05,04,06,20,0.00
2009,05,04,06,21,0.00
2009,05,04,06,22,0.00
2009,05,04,06,23,1.60
2009,05,04,06,24,0.00
2009,05,04,06,25,0.00
2009,05,04,06,26,0.00
2009,05,04,06,27,0.00
2009,05,04,06,28,0.00
2009,05,04,06,29,0.00
2009,05,04,06,30,0.00
2009,05,04,06,31,0.00
2009,05,04,06,32,0.00
2009,05,04,06,33,0.00
2009,05,04,06,34,0.00
2009,05,04,06,35,0.00
2009,05,04,06,36,1.60
2009,05,04,06,37,0.00
2009,05,04,06,38,0.00
2009,05,04,06,39,0.00
2009,05,04,06,40,0.00
2009,05,04,06,41,1.60
2009,05,04,06,42,0.00
2009,05,04,06,43,0.00
2009,05,04,06,44,0.00
2009,05,04,06,45,0.00
2009,05,04,06,46,0.00
2009,05,04,06,47,0.00
2009,05,04,06,48,0.00
2009,05,04,06,49,0.00
2009,05,04,06,50,0.00
2009,05,04,06,51,3.20
2009,05,04,06,52,3.20
2009,05,04,06,53,1.60
2009,05,04,06,54,0.00
2009,05,04,06,55,0.00
2009,05,04,06,56,0.00
2009,05,04,06,57,0.00
2009,05,04,06,58,0.00
2009,05,04,06,59,0.00
2009,05,04,07,00,1.60
2009,05,04,07,01,0.00
2009,05,04,07,02,0.00
2009,05,04,07,03,0.00
2009,05,04,07,04,0.00
2009,05,04,07,05,0.00
2009,05,04,07,06,0.00
2009,05,04,07,07,0.00
2009,05,04,07,08,3.20
2009,05,04,07,09,1.60
2009,05,04,07,10,1.60
2009,05,04,07,11,0.00
2009,05,04,07,12,1.60
2009,05,04,07,13,1.60
2009,05,04,07,14,1.60
2009,05,04,07,15,1.60
2009,05,04,07,16,1.60
2009,05,04,07,17,1.60
2009,05,04,07,18,1.60
2009,05,04,07,19,1.60
2009,05,04,07,20,1.60
2009,05,04,07,21,1.60
2009,05,04,07,22,3.20
2009,05,04,07,23,1.60
2009,05,04,07,24,1.60
2009,05,04,07,25,1.60
2009,05,04,07,26,1.60
2009,05,04,07,27,1.60
2009,05,04,07,28,0.00
2009,05,04,07,29,0.00
2009,05,04,07,30,1.60
2009,05,04,07,31,0.00
2009,05,04,07,32,1.60
2009,05,04,07,33,0.00
2009,05,04,07,34,1.60
2009,05,04,07,35,0.00
2009,05,04,07,36,0.00
2009,05,04,07,37,0.00
2009,05,04,07,38,0.00
2009,05,04,07,39,0.00
2009,05,04,07,40,1.60
2009,05,04,07,41,0.00
2009,05,04,07,42,0.00
2009,05,04,07,43,0.00
2009,05,04,07,44,0.00
2009,05,04,07,45,0.00
2009,05,04,07,46,0.00
2009,05,04,07,47,0.00
2009,05,04,07,48,0.00
2009,05,04,07,49,0.00
2009,05,04,07,50,3.20
2009,05,04,07,51,1.60
2009,05,04,07,52,0.00
2009,05,04,07,53,1.60
2009,05,04,07,54,0.00
2009,05,04,07,55,1.60
2009,05,04,07,56,1.60
2009,05,04,07,57,3.20
2009,05,04,07,58,3.20
2009,05,04,07,59,4.80
2009,05,04,08,00,3.20
2009,05,04,08,01,4.80
2009,05,04,08,02,4.80
2009,05,04,08,03,3.20
2009,05,04,08,04,3.20
2009,05,04,08,05,4.80
2009,05,04,08,06,1.60
2009,05,04,08,07,6.40
2009,05,04,08,08,6.40
2009,05,04,08,09,1.60
2009,05,04,08,10,1.60
2009,05,04,08,11,1.60
2009,05,04,08,12,1.60
2009,05,04,08,13,1.60
2009,05,04,08,14,4.80
2009,05,04,08,15,4.80
2009,05,04,08,16,6.40
2009,05,04,08,17,4.80
2009,05,04,08,18,6.40
2009,05,04,08,19,9.60
2009,05,04,08,20,8.10
2009,05,04,08,21,9.60
2009,05,04,08,22,17.70
2009,05,04,08,23,11.30
2009,05,04,08,24,6.40
2009,05,04,08,25,11.30
2009,05,04,08,26,9.60
2009,05,04,08,27,6.40
2009,05,04,08,28,14.50
2009,05,04,08,29,11.30
2009,05,04,08,30,4.80
2009,05,04,08,31,4.80
2009,05,04,08,32,3.20
2009,05,04,08,33,4.80
2009,05,04,08,34,3.20
2009,05,04,08,35,4.80
2009,05,04,08,36,4.80
2009,05,04,08,37,4.80
2009,05,04,08,38,11.30
2009,05,04,08,39,17.70
2009,05,04,08,40,17.70
2009,05,04,08,41,17.70
2009,05,04,08,42,16.10
2009,05,04,08,43,14.50
2009,05,04,08,44,11.30
2009,05,04,08,45,3.20
2009,05,04,08,46,16.10
2009,05,04,08,47,9.60
2009,05,04,08,48,9.60
2009,05,04,08,49,11.30
2009,05,04,08,50,4.80
2009,05,04,08,51,6.40
2009,05,04,08,52,16.10
2009,05,04,08,53,14.50
2009,05,04,08,54,9.60
2009,05,04,08,55,14.50
2009,05,04,08,56,6.40
2009,05,04,08,57,11.30
2009,05,04,08,58,17.70
2009,05,04,08,59,17.70
2009,05,04,09,00,9.60
2009,05,04,09,01,8.10
2009,05,04,09,02,4.80
2009,05,04,09,03,11.30
2009,05,04,09,04,9.60
2009,05,04,09,05,11.30
2009,05,04,09,06,4.80
2009,05,04,09,07,9.60
2009,05,04,09,08,11.30
2009,05,04,09,09,9.60
2009,05,04,09,10,6.40
2009,05,04,09,11,9.60
2009,05,04,09,12,6.40
2009,05,04,09,13,9.60
2009,05,04,09,14,19.30
2009,05,04,09,15,8.10
2009,05,04,09,16,4.80
2009,05,04,09,17,1.60
2009,05,04,09,18,17.70
2009,05,04,09,19,20.90
2009,05,04,09,20,14.50
2009,05,04,09,21,9.60
2009,05,04,09,22,9.60
2009,05,04,09,23,6.40
2009,05,04,09,24,6.40
2009,05,04,09,25,4.80
2009,05,04,09,26,4.80
2009,05,04,09,27,8.10
2009,05,04,09,28,6.40
2009,05,04,09,29,6.40
2009,05,04,09,30,4.80
2009,05,04,09,31,6.40
2009,05,04,09,32,8.10
2009,05,04,09,33,16.10
2009,05,04,09,34,8.10
2009,05,04,09,35,12.90
2009,05,04,09,36,9.60
2009,05,04,09,37,6.40
2009,05,04,09,38,11.30
2009,05,04,09,39,8.10
2009,05,04,09,40,4.80
2009,05,04,09,41,8.10
2009,05,04,09,42,19.30
2009,05,04,09,43,11.30
2009,05,04,09,44,11.30
2009,05,04,09,45,9.60
2009,05,04,09,46,11.30
2009,05,04,09,47,17.70
2009,05,04,09,48,17.70
2009,05,04,09,49,11.30
2009,05,04,09,50,9.60
2009,05,04,09,51,9.60
2009,05,04,09,52,16.10
2009,05,04,09,53,11.30
2009,05,04,09,54,9.60
2009,05,04,09,55,16.10
2009,05,04,09,56,11.30
2009,05,04,09,57,9.60
2009,05,04,09,58,8.10
2009,05,04,09,59,14.50
2009,05,04,10,00,6.40
2009,05,04,10,01,8.10
2009,05,04,10,02,4.80
2009,05,04,10,03,4.80
2009,05,04,10,04,9.60
2009,05,04,10,05,17.70
2009,05,04,10,06,3.20
2009,05,04,10,07,17.70
2009,05,04,10,08,8.10
2009,05,04,10,09,8.10
2009,05,04,10,10,9.60
2009,05,04,10,11,8.10
2009,05,04,10,12,14.50
2009,05,04,10,13,11.30
2009,05,04,10,14,6.40
2009,05,04,10,15,6.40
2009,05,04,10,16,19.30
2009,05,04,10,17,22.50
2009,05,04,10,18,9.60
2009,05,04,10,19,9.60
2009,05,04,10,20,4.80
2009,05,04,10,21,9.60
2009,05,04,10,22,11.30
2009,05,04,10,23,9.60
2009,05,04,10,24,11.30
2009,05,04,10,25,11.30
2009,05,04,10,26,11.30
2009,05,04,10,27,11.30
2009,05,04,10,28,4.80
2009,05,04,10,29,9.60
2009,05,04,10,30,14.50
2009,05,04,10,31,9.60
2009,05,04,10,32,4.80
2009,05,04,10,33,11.30
2009,05,04,10,34,14.50
2009,05,04,10,35,20.90
2009,05,04,10,36,11.30
2009,05,04,10,37,8.10
2009,05,04,10,38,8.10
2009,05,04,10,39,11.30
2009,05,04,10,40,9.60
2009,05,04,10,41,8.10
2009,05,04,10,42,6.40
2009,05,04,10,43,19.30
2009,05,04,10,44,17.70
2009,05,04,10,45,19.30
2009,05,04,10,46,16.10
2009,05,04,10,47,17.70
2009,05,04,10,48,11.30
2009,05,04,10,49,17.70
2009,05,04,10,50,11.30
2009,05,04,10,51,11.30
2009,05,04,10,52,11.30
2009,05,04,10,53,16.10
2009,05,04,10,54,12.90
2009,05,04,10,55,3.20
2009,05,04,10,56,9.60
2009,05,04,10,57,8.10
2009,05,04,10,58,8.10
2009,05,04,10,59,11.30
2009,05,04,11,00,3.20
2009,05,04,11,01,8.10
2009,05,04,11,02,4.80
2009,05,04,11,03,3.20
2009,05,04,11,04,3.20
2009,05,04,11,05,3.20
2009,05,04,11,06,4.80
2009,05,04,11,07,9.60
2009,05,04,11,08,3.20
2009,05,04,11,09,9.60
2009,05,04,11,10,14.50
2009,05,04,11,11,6.40
2009,05,04,11,12,8.10
2009,05,04,11,13,8.10
2009,05,04,11,14,6.40
2009,05,04,11,15,9.60
2009,05,04,11,16,6.40
2009,05,04,11,17,6.40
2009,05,04,11,18,6.40
2009,05,04,11,19,4.80
2009,05,04,11,20,6.40
2009,05,04,11,21,6.40
2009,05,04,11,22,9.60
2009,05,04,11,23,9.60
2009,05,04,11,24,6.40
2009,05,04,11,25,6.40
2009,05,04,11,26,12.90
2009,05,04,11,27,16.10
2009,05,04,11,28,19.30
2009,05,04,11,29,24.20
2009,05,04,11,30,20.90
2009,05,04,11,31,16.10
2009,05,04,11,32,9.60
2009,05,04,11,33,16.10
2009,05,04,11,34,22.50
2009,05,04,11,35,16.10
2009,05,04,11,36,22.50
2009,05,04,11,37,16.10
2009,05,04,11,38,11.30
2009,05,04,11,39,9.60
2009,05,04,11,40,11.30
2009,05,04,11,41,12.90
2009,05,04,11,42,8.10
2009,05,04,11,43,8.10
2009,05,04,11,44,6.40
2009,05,04,11,45,19.30
2009,05,04,11,46,14.50
2009,05,04,11,47,4.80
2009,05,04,11,48,11.30
2009,05,04,11,49,12.90
2009,05,04,11,50,16.10
2009,05,04,11,51,14.50
2009,05,04,11,52,8.10
2009,05,04,11,53,6.40
2009,05,04,11,54,11.30
2009,05,04,11,55,8.10
2009,05,04,11,56,8.10
2009,05,04,11,57,17.70
2009,05,04,11,58,16.10
2009,05,04,11,59,11.30
2009,05,04,12,00,9.60
2009,05,04,12,01,14.50
2009,05,04,12,02,19.30
2009,05,04,12,03,11.30
2009,05,04,12,04,16.10
2009,05,04,12,05,6.40
2009,05,04,12,06,8.10
2009,05,04,12,07,6.40
2009,05,04,12,08,4.80
2009,05,04,12,09,9.60
2009,05,04,12,10,8.10
2009,05,04,12,11,6.40
2009,05,04,12,12,11.30
2009,05,04,12,13,8.10
2009,05,04,12,14,9.60
2009,05,04,12,15,6.40
2009,05,04,12,16,4.80
2009,05,04,12,17,9.60
2009,05,04,12,18,8.10
2009,05,04,12,19,9.60
2009,05,04,12,20,4.80
2009,05,04,12,21,14.50
2009,05,04,12,22,16.10
2009,05,04,12,23,9.60
2009,05,04,12,24,11.30
2009,05,04,12,25,9.60
2009,05,04,12,26,17.70
2009,05,04,12,27,11.30
2009,05,04,12,28,4.80
2009,05,04,12,29,9.60
2009,05,04,12,30,8.10
2009,05,04,12,31,17.70
2009,05,04,12,32,16.10
2009,05,04,12,33,11.30
2009,05,04,12,34,9.60
2009,05,04,12,35,6.40
2009,05,04,12,36,11.30
2009,05,04,12,37,8.10
2009,05,04,12,38,6.40
2009,05,04,12,39,6.40
2009,05,04,12,40,11.30
2009,05,04,12,41,9.60
2009,05,04,12,42,9.60
2009,05,04,12,43,17.70
2009,05,04,12,44,8.10
2009,05,04,12,45,4.80
2009,05,04,12,46,8.10
2009,05,04,12,47,6.40
2009,05,04,12,48,8.10
2009,05,04,12,49,6.40
2009,05,04,12,50,9.60
2009,05,04,12,51,4.80
2009,05,04,12,52,9.60
2009,05,04,12,53,11.30
2009,05,04,12,54,9.60
2009,05,04,12,55,20.90
2009,05,04,12,56,9.60
2009,05,04,12,57,9.60
2009,05,04,12,58,9.60
2009,05,04,12,59,9.60
2009,05,04,13,00,17.70
2009,05,04,13,01,14.50
2009,05,04,13,02,8.10
2009,05,04,13,03,9.60
2009,05,04,13,04,8.10
2009,05,04,13,05,9.60
2009,05,04,13,06,19.30
2009,05,04,13,07,17.70
2009,05,04,13,08,6.40
2009,05,04,13,09,9.60
2009,05,04,13,10,22.50
2009,05,04,13,11,14.50
2009,05,04,13,12,14.50
2009,05,04,13,13,20.90
2009,05,04,13,14,16.10
2009,05,04,13,15,11.30
2009,05,04,13,16,4.80
2009,05,04,13,17,16.10
2009,05,04,13,18,29.00
2009,05,04,13,19,24.20
2009,05,04,13,20,17.70
2009,05,04,13,21,8.10
2009,05,04,13,22,11.30
2009,05,04,13,23,17.70
2009,05,04,13,24,19.30
2009,05,04,13,25,11.30
2009,05,04,13,26,6.40
2009,05,04,13,27,9.60
2009,05,04,13,28,11.30
2009,05,04,13,29,24.20
2009,05,04,13,30,16.10
2009,05,04,13,31,25.70
2009,05,04,13,32,17.70
2009,05,04,13,33,17.70
2009,05,04,13,34,19.30
2009,05,04,13,35,22.50
2009,05,04,13,36,9.60
2009,05,04,13,37,6.40
2009,05,04,13,38,12.90
2009,05,04,13,39,12.90
2009,05,04,13,40,11.30
2009,05,04,13,41,16.10
2009,05,04,13,42,17.70
2009,05,04,13,43,11.30
2009,05,04,13,44,11.30
2009,05,04,13,45,11.30
2009,05,04,13,46,16.10
2009,05,04,13,47,9.60
2009,05,04,13,48,20.90
2009,05,04,13,49,20.90
2009,05,04,13,50,20.90
2009,05,04,13,51,12.90
2009,05,04,13,52,9.60
2009,05,04,13,53,6.40
2009,05,04,13,54,16.10
2009,05,04,13,55,27.40
2009,05,04,13,56,17.70
2009,05,04,13,57,16.10
2009,05,04,13,58,9.60
2009,05,04,13,59,24.20
2009,05,04,14,00,9.60
2009,05,04,14,01,11.30
2009,05,04,14,02,11.30
2009,05,04,14,03,16.10
2009,05,04,14,04,14.50
2009,05,04,14,05,8.10
2009,05,04,14,06,16.10
2009,05,04,14,07,17.70
2009,05,04,14,08,17.70
2009,05,04,14,09,16.10
2009,05,04,14,10,17.70
2009,05,04,14,11,20.90
2009,05,04,14,12,16.10
2009,05,04,14,13,11.30
2009,05,04,14,14,11.30
2009,05,04,14,15,19.30
2009,05,04,14,16,9.60
2009,05,04,14,17,11.30
2009,05,04,14,18,8.10
2009,05,04,14,19,8.10
2009,05,04,14,20,4.80
2009,05,04,14,21,11.30
2009,05,04,14,22,17.70
2009,05,04,14,23,6.40
2009,05,04,14,24,8.10
2009,05,04,14,25,9.60
2009,05,04,14,26,11.30
2009,05,04,14,27,16.10
2009,05,04,14,28,11.30
2009,05,04,14,29,9.60
2009,05,04,14,30,9.60
2009,05,04,14,31,9.60
2009,05,04,14,32,6.40
2009,05,04,14,33,6.40
2009,05,04,14,34,16.10
2009,05,04,14,35,14.50
2009,05,04,14,36,6.40
2009,05,04,14,37,6.40
2009,05,04,14,38,9.60
2009,05,04,14,39,9.60
2009,05,04,14,40,11.30
2009,05,04,14,41,14.50
2009,05,04,14,42,11.30
2009,05,04,14,43,9.60
2009,05,04,14,44,9.60
2009,05,04,14,45,4.80
2009,05,04,14,46,9.60
2009,05,04,14,47,8.10
2009,05,04,14,48,14.50
2009,05,04,14,49,16.10
2009,05,04,14,50,8.10
2009,05,04,14,51,11.30
2009,05,04,14,52,11.30
2009,05,04,14,53,11.30
2009,05,04,14,54,11.30
2009,05,04,14,55,14.50
2009,05,04,14,56,8.10
2009,05,04,14,57,11.30
2009,05,04,14,58,6.40
2009,05,04,14,59,16.10
2009,05,04,15,00,14.50
2009,05,04,15,01,11.30
2009,05,04,15,02,9.60
2009,05,04,15,03,4.80
2009,05,04,15,04,11.30
2009,05,04,15,05,9.60
2009,05,04,15,06,9.60
2009,05,04,15,07,8.10
2009,05,04,15,08,4.80
2009,05,04,15,09,1.60
2009,05,04,15,10,6.40
2009,05,04,15,11,6.40
2009,05,04,15,12,3.20
2009,05,04,15,13,8.10
2009,05,04,15,14,3.20
2009,05,04,15,15,6.40
2009,05,04,15,16,9.60
2009,05,04,15,17,9.60
2009,05,04,15,18,3.20
2009,05,04,15,19,3.20
2009,05,04,15,20,8.10
2009,05,04,15,21,6.40
2009,05,04,15,22,9.60
2009,05,04,15,23,4.80
2009,05,04,15,24,8.10
2009,05,04,15,25,8.10
2009,05,04,15,26,9.60
2009,05,04,15,27,6.40
2009,05,04,15,28,4.80
2009,05,04,15,29,6.40
2009,05,04,15,30,9.60
2009,05,04,15,31,4.80
2009,05,04,15,32,3.20
2009,05,04,15,33,3.20
2009,05,04,15,34,4.80
2009,05,04,15,35,3.20
2009,05,04,15,36,4.80
2009,05,04,15,37,6.40
2009,05,04,15,38,3.20
2009,05,04,15,39,1.60
2009,05,04,15,40,3.20
2009,05,04,15,41,1.60
2009,05,04,15,42,3.20
2009,05,04,15,43,3.20
2009,05,04,15,44,1.60
2009,05,04,15,45,1.60
2009,05,04,15,46,1.60
2009,05,04,15,47,4.80
2009,05,04,15,48,3.20
2009,05,04,15,49,3.20
2009,05,04,15,50,4.80
2009,05,04,15,51,3.20
2009,05,04,15,52,3.20
2009,05,04,15,53,6.40
2009,05,04,15,54,6.40
2009,05,04,15,55,6.40
2009,05,04,15,56,9.60
2009,05,04,15,57,8.10
2009,05,04,15,58,11.30
2009,05,04,15,59,4.80
2009,05,04,16,00,4.80
2009,05,04,16,01,6.40
2009,05,04,16,02,6.40
2009,05,04,16,03,9.60
2009,05,04,16,04,8.10
2009,05,04,16,05,8.10
2009,05,04,16,06,8.10
2009,05,04,16,07,9.60
2009,05,04,16,08,11.30
2009,05,04,16,09,14.50
2009,05,04,16,10,11.30
2009,05,04,16,11,9.60
2009,05,04,16,12,11.30
2009,05,04,16,13,4.80
2009,05,04,16,14,3.20
2009,05,04,16,15,3.20
2009,05,04,16,16,1.60
2009,05,04,16,17,3.20
2009,05,04,16,18,0.00
2009,05,04,16,19,6.40
2009,05,04,16,20,6.40
2009,05,04,16,21,3.20
2009,05,04,16,22,1.60
2009,05,04,16,23,0.00
2009,05,04,16,24,1.60
2009,05,04,16,25,3.20
2009,05,04,16,26,1.60
2009,05,04,16,27,1.60
2009,05,04,16,28,1.60
2009,05,04,16,29,1.60
2009,05,04,16,30,0.00
2009,05,04,16,31,1.60
2009,05,04,16,32,4.80
2009,05,04,16,33,6.40
2009,05,04,16,34,4.80
2009,05,04,16,35,3.20
2009,05,04,16,36,4.80
2009,05,04,16,37,4.80
2009,05,04,16,38,4.80
2009,05,04,16,39,6.40
2009,05,04,16,40,4.80
2009,05,04,16,41,3.20
2009,05,04,16,42,8.10
2009,05,04,16,43,11.30
2009,05,04,16,44,8.10
2009,05,04,16,45,9.60
2009,05,04,16,46,9.60
2009,05,04,16,47,6.40
2009,05,04,16,48,8.10
2009,05,04,16,49,6.40
2009,05,04,16,50,6.40
2009,05,04,16,51,11.30
2009,05,04,16,52,8.10
2009,05,04,16,53,6.40
2009,05,04,16,54,4.80
2009,05,04,16,55,3.20
2009,05,04,16,56,8.10
2009,05,04,16,57,6.40
2009,05,04,16,58,3.20
2009,05,04,16,59,4.80
2009,05,04,17,00,6.40
2009,05,04,17,01,4.80
2009,05,04,17,02,1.60
2009,05,04,17,03,1.60
2009,05,04,17,04,0.00
2009,05,04,17,05,3.20
2009,05,04,17,06,0.00
2009,05,04,17,07,4.80
2009,05,04,17,08,3.20
2009,05,04,17,09,1.60
2009,05,04,17,10,0.00
2009,05,04,17,11,3.20
2009,05,04,17,12,4.80
2009,05,04,17,13,1.60
2009,05,04,17,14,4.80
2009,05,04,17,15,3.20
2009,05,04,17,16,1.60
2009,05,04,17,17,0.00
2009,05,04,17,18,1.60
2009,05,04,17,19,1.60
2009,05,04,17,20,1.60
2009,05,04,17,21,3.20
2009,05,04,17,22,1.60
2009,05,04,17,23,1.60
2009,05,04,17,24,3.20
2009,05,04,17,25,0.00
2009,05,04,17,26,1.60
2009,05,04,17,27,0.00
2009,05,04,17,28,1.60
2009,05,04,17,29,1.60
2009,05,04,17,30,0.00
2009,05,04,17,31,0.00
2009,05,04,17,32,0.00
2009,05,04,17,33,1.60
2009,05,04,17,34,6.40
2009,05,04,17,35,4.80
2009,05,04,17,36,3.20
2009,05,04,17,37,0.00
2009,05,04,17,38,0.00
2009,05,04,17,39,3.20
2009,05,04,17,40,1.60
2009,05,04,17,41,6.40
2009,05,04,17,42,11.30
2009,05,04,17,43,11.30
2009,05,04,17,44,9.60
2009,05,04,17,45,8.10
2009,05,04,17,46,14.50
2009,05,04,17,47,16.10
2009,05,04,17,48,8.10
2009,05,04,17,49,3.20
2009,05,04,17,50,8.10
2009,05,04,17,51,8.10
2009,05,04,17,52,9.60
2009,05,04,17,53,8.10
2009,05,04,17,54,4.80
2009,05,04,17,55,9.60
2009,05,04,17,56,11.30
2009,05,04,17,57,11.30
2009,05,04,17,58,9.60
2009,05,04,17,59,8.10
2009,05,04,18,00,11.30
2009,05,04,18,01,8.10
2009,05,04,18,02,9.60
2009,05,04,18,03,4.80
2009,05,04,18,04,14.50
2009,05,04,18,05,9.60
2009,05,04,18,06,4.80
2009,05,04,18,07,8.10
2009,05,04,18,08,11.30
2009,05,04,18,09,6.40
2009,05,04,18,10,3.20
2009,05,04,18,11,3.20
2009,05,04,18,12,3.20
2009,05,04,18,13,3.20
2009,05,04,18,14,6.40